Vorticity
10 4 -0 5 9 6 -1 -7 -17 -5 -1 5 24 20 0 1 1 15 14 14 2 11 7 8 9 4 5 5 15 29 6 7 10 6 16 -2 30 25 5 4 20 5 6 7
5 -4 9 6 9 6 4 4 10 3 6 14 -3 -2 -9 9 3 24 6 11 7 7 12 15 7 6 7 6 8 27 42 27 19 4 6 28 26 10 12 2 8 -6 -5 -28
3 -13 41 11 5 5 3 4 11 0 -6 9 19 13 17 7 28 11 9 4 -3 8 6 16 11 7 7 5 9 6 9 9 14 24 39 23 6 15 -17 30 1 4 11 31
26 5 -27 18 30 3 12 11 1 5 11 1 9 -8 7 10 11 14 6 0 9 5 5 12 9 9 8 3 7 8 7 9 7 10 13 21 25 21 11 8 25 23 17 4
1 11 11 -14 -2 20 10 12 1 -2 6 20 0 18 -6 6 -2 14 4 -2 14 7 1 3 16 8 6 4 5 7 7 7 6 5 6 8 14 16 17 23 20 18 9 7
14 -4 15 25 12 8 2 -5 -4 15 18 25 2 11 33 12 22 4 -8 10 13 8 16 11 0 11 4 6 4 4 5 6 5 6 6 7 6 7 6 5 6 6 5 1
6 -2 6 3 8 8 12 6 18 33 21 -6 -0 30 3 10 2 23 27 17 -4 13 3 11 8 6 7 7 6 4 4 4 4 4 5 8 9 6 6 7 6 4 6 6
-2 60 2 4 6 -18 26 2 -49 11 7 7 25 13 1 -9 -9 7 15 27 13 18 1 5 13 9 9 8 7 4 6 3 5 4 5 6 6 8 10 7 7 6 7 8
28 12 18 16 6 1 35 -11 4 13 3 10 1 -6 -16 5 28 14 15 10 13 7 19 5 8 9 11 10 13 8 6 3 2 5 4 5 4 4 8 7 6 11 6 5
-15 -11 22 45 27 30 -6 6 29 29 4 7 14 15 -21 0 -4 24 9 22 18 11 11 5 8 -1 1 5 8 13 14 8 1 2 4 3 3 3 4 4 4 5 3 3
20 -48 4 -12 16 3 27 6 -10 29 -7 -12 6 18 18 4 17 11 11 8 4 2 10 10 21 7 7 2 -1 4 12 18 15 4 3 2 2 3 4 6 5 -1 7 -1
48 12 47 2 -32 -34 37 12 15 -29 9 23 -6 14 -45 -6 -5 16 11 4 4 3 7 9 8 19 15 10 4 5 8 3 4 30 22 19 3 11 6 5 7 6 13 53
7 30 37 35 36 36 -18 2 12 15 2 5 -40 -13 37 9 29 8 28 -21 10 12 3 1 0 8 18 17 18 12 19 14 7 2 16 12 -21 11 49 1 8 10 8 -17
-2 20 -8 -2 -18 -2 18 26 -8 29 8 -4 -5 -2 -1 -4 12 -7 22 5 5 6 -2 2 5 9 1 18 13 18 16 16 18 14 8 13 -3 24 31 14 58 25 4 27
5 16 18 32 -2 15 13 17 11 13 -6 -8 12 10 5 -9 7 20 7 9 -5 6 7 2 10 2 -1 4 9 16 14 13 17 10 13 17 6 10 10 14 12 1 12 16
9 2 -2 13 41 36 8 8 -9 17 16 16 28 -7 1 13 21 21 32 1 12 -1 2 8 1 8 4 -5 14 11 7 9 11 13 17 11 7 1 12 9 11 12 6 6
14 25 18 18 6 39 55 7 17 7 -8 -14 22 21 13 -0 4 8 12 -7 24 11 5 18 0 6 14 1 12 3 4 12 13 6 19 13 9 6 5 8 6 5 6 11
-5 -3 20 7 32 22 32 42 52 12 11 16 -16 17 11 18 18 24 12 12 13 20 24 -2 2 11 8 2 7 3 2 8 7 -3 10 20 14 10 8 6 9 6 1 9
20 4 4 4 19 -12 -37 60 12 41 21 8 3 10 1 14 11 2 5 12 20 9 14 1 6 10 9 10 5 4 4 7 5 9 8 9 13 10 10 14 11 9 13 7
26 13 -11 18 4 -3 9 -65 18 -18 42 10 47 -28 -7 33 -0 -22 8 33 -14 11 14 14 8 9 13 7 3 5 7 5 9 10 8 7 9 11 9 11 22 14 9 9
15 21 13 3 -2 18 16 42 21 19 2 20 18 34 38 -7 27 22 13 -14 31 16 3 15 20 6 9 4 7 10 12 12 13 10 5 9 14 11 10 17 18 15 13 16
-19 -3 17 28 10 17 29 16 48 27 51 -12 0 -2 3 8 -14 18 20 18 19 19 21 16 12 7 7 9 10 11 11 14 10 8 8 12 14 11 12 16 17 18 8 6
7 -5 -11 -2 5 -9 -1 29 29 27 11 30 13 -2 10 -11 10 6 15 11 22 18 15 6 5 7 8 11 10 11 15 13 11 10 13 16 14 15 17 16 10 6 7 7
22 22 12 -10 -3 -32 -32 -8 -9 14 2 16 30 -9 9 20 32 2 7 9 19 6 7 6 4 5 8 4 6 8 10 11 11 12 14 12 12 13 12 9 5 6 6 7
25 -2 1 -2 6 9 11 14 7 9 12 13 34 49 -29 7 10 16 18 17 14 2 6 16 9 7 6 8 5 5 10 13 12 12 12 12 13 10 7 5 6 7 6 5
15 4 -14 11 29 2 27 25 5 3 14 11 0 9 17 49 24 4 19 -8 4 7 -2 4 1 8 7 8 10 7 6 9 12 14 14 13 12 9 8 6 7 8 8 9
Height
3078 3080 3072 3079 3085 3089 3092 3092 3092 3092 3093 3091 3088 3085 3084 3084 3082 3081 3079 3079 3079 3076 3074 3074 3074 3072 3069 3067 3066 3063 3068 3073 3077 3081 3083 3086 3088 3092 3098 3103 3110 3115 3121 3124
3074 3068 3074 3078 3082 3085 3087 3088 3087 3089 3089 3089 3086 3084 3082 3081 3079 3078 3077 3076 3078 3075 3074 3074 3073 3074 3071 3070 3069 3069 3068 3071 3076 3079 3081 3084 3088 3095 3100 3104 3111 3116 3119 3123
3063 3068 3070 3073 3076 3079 3081 3082 3084 3086 3084 3083 3082 3079 3078 3078 3076 3076 3074 3074 3075 3074 3074 3073 3073 3075 3074 3073 3074 3073 3073 3073 3076 3079 3081 3083 3090 3095 3099 3103 3108 3113 3116 3121
3061 3066 3065 3067 3069 3074 3074 3078 3081 3082 3082 3080 3078 3076 3075 3075 3073 3072 3072 3071 3073 3074 3073 3073 3072 3074 3075 3075 3076 3076 3075 3074 3076 3080 3083 3085 3088 3092 3097 3102 3108 3111 3114 3120
3051 3055 3060 3063 3064 3069 3069 3076 3078 3078 3076 3075 3075 3073 3069 3070 3069 3069 3068 3068 3069 3072 3072 3073 3073 3074 3074 3075 3077 3078 3079 3079 3079 3081 3084 3087 3089 3092 3097 3102 3105 3108 3113 3118
3051 3056 3057 3060 3064 3066 3070 3072 3073 3072 3071 3068 3069 3069 3061 3064 3064 3063 3064 3064 3066 3069 3070 3071 3072 3072 3074 3074 3076 3078 3080 3082 3083 3085 3088 3090 3092 3095 3098 3102 3106 3109 3112 3118
3048 3048 3052 3057 3059 3062 3065 3069 3072 3070 3066 3059 3064 3063 3057 3057 3056 3057 3059 3060 3063 3065 3068 3069 3069 3071 3073 3074 3075 3078 3080 3082 3084 3086 3088 3090 3092 3095 3099 3102 3105 3107 3110 3113
3042 3044 3045 3046 3049 3055 3058 3063 3065 3065 3065 3056 3058 3053 3052 3052 3053 3053 3054 3054 3058 3061 3064 3066 3068 3070 3072 3074 3076 3077 3079 3080 3082 3084 3086 3088 3090 3093 3096 3100 3102 3103 3106 3110
3036 3037 3040 3042 3048 3052 3052 3054 3060 3059 3057 3056 3054 3051 3048 3049 3048 3048 3049 3051 3053 3057 3060 3063 3065 3067 3070 3071 3073 3075 3077 3079 3081 3084 3085 3086 3088 3091 3093 3096 3099 3103 3104 3106
3034 3035 3036 3039 3042 3044 3046 3053 3054 3053 3056 3057 3049 3048 3046 3044 3045 3045 3047 3048 3051 3054 3057 3060 3062 3064 3066 3068 3070 3072 3073 3075 3078 3081 3082 3084 3086 3088 3090 3092 3094 3097 3098 3100
3030 3033 3034 3037 3036 3038 3041 3042 3046 3047 3046 3047 3051 3043 3043 3043 3042 3045 3046 3047 3049 3051 3054 3056 3058 3060 3062 3064 3065 3067 3069 3071 3073 3074 3077 3079 3081 3083 3085 3088 3089 3090 3092 3092
3027 3027 3027 3025 3030 3035 3036 3038 3040 3040 3041 3041 3039 3034 3042 3041 3041 3042 3044 3046 3047 3049 3050 3052 3054 3056 3056 3058 3060 3062 3061 3064 3066 3070 3072 3074 3076 3077 3078 3079 3080 3082 3085 3085
3022 3021 3022 3023 3025 3027 3027 3030 3033 3035 3036 3030 3036 3031 3035 3040 3039 3040 3040 3042 3044 3046 3047 3049 3050 3050 3052 3053 3055 3055 3056 3058 3061 3063 3064 3065 3068 3068 3069 3068 3068 3072 3075 3076
3020 3019 3022 3021 3021 3023 3021 3023 3026 3028 3026 3026 3020 3026 3032 3035 3036 3038 3039 3040 3041 3043 3044 3045 3047 3047 3048 3049 3050 3050 3053 3053 3055 3056 3057 3057 3060 3061 3061 3061 3055 3060 3064 3068
3018 3014 3016 3014 3016 3017 3016 3018 3020 3018 3018 3018 3019 3019 3025 3030 3031 3032 3034 3035 3037 3038 3038 3040 3042 3044 3044 3045 3045 3045 3046 3048 3049 3049 3050 3050 3054 3055 3056 3056 3055 3059 3061 3062
3013 3013 3013 3011 3012 3011 3011 3012 3011 3011 3012 3010 3013 3012 3020 3024 3025 3026 3027 3029 3030 3032 3035 3034 3036 3038 3040 3042 3042 3042 3041 3042 3042 3042 3043 3045 3046 3048 3048 3050 3051 3053 3055 3056
3008 3009 3010 3007 3006 3005 3005 2994 3005 3008 3007 3008 3008 3011 3016 3016 3018 3018 3020 3021 3022 3025 3028 3029 3030 3031 3034 3036 3038 3038 3037 3037 3037 3037 3038 3040 3040 3041 3043 3044 3046 3048 3048 3048
3004 3005 3003 3001 3001 3004 2994 3000 2999 2999 3001 3003 3004 3006 3009 3009 3011 3012 3013 3013 3015 3017 3020 3022 3024 3026 3027 3029 3031 3032 3032 3033 3033 3033 3032 3032 3034 3036 3037 3038 3039 3040 3041 3042
2998 2999 2999 2999 2997 2994 2993 2994 2997 2996 2989 2994 2997 3000 3001 3004 3003 3004 3007 3008 3008 3011 3013 3015 3017 3019 3020 3022 3024 3025 3026 3026 3026 3026 3026 3027 3028 3029 3030 3031 3032 3031 3032 3031
2990 2991 2996 2996 2996 2993 2983 2989 2994 2989 2979 2985 2987 2992 2993 2999 2996 2999 3002 3002 3003 3004 3005 3007 3009 3012 3014 3015 3017 3018 3018 3018 3018 3019 3019 3019 3019 3020 3021 3020 3020 3021 3022 3022
2985 2988 2989 2989 2990 2982 2980 2982 2985 2987 2982 2984 2983 2983 2987 2991 2992 2994 2995 2995 2996 2997 2998 3000 3002 3005 3007 3008 3008 3009 3009 3008 3009 3009 3009 3009 3009 3009 3009 3009 3010 3011 3012 3013
2982 2983 2983 2985 2986 2981 2977 2975 2976 2984 2980 2980 2978 2980 2983 2985 2987 2989 2989 2990 2991 2991 2991 2993 2996 2998 3000 3001 3000 3000 3000 2999 2999 2999 2998 2997 2998 2998 2999 3000 3001 3002 3003 3004
2977 2977 2979 2980 2977 2975 2973 2973 2968 2971 2971 2974 2973 2974 2975 2977 2980 2982 2982 2984 2986 2987 2987 2989 2990 2992 2992 2993 2993 2992 2991 2991 2991 2990 2990 2990 2990 2990 2991 2992 2993 2994 2994 2995
2971 2973 2973 2976 2971 2970 2970 2971 2969 2969 2971 2971 2971 2969 2969 2972 2974 2976 2977 2978 2979 2982 2984 2984 2985 2985 2986 2986 2986 2984 2983 2982 2981 2981 2981 2980 2980 2981 2983 2984 2985 2985 2986 2986
2967 2968 2966 2965 2966 2966 2966 2966 2967 2968 2968 2966 2966 2966 2964 2966 2967 2968 2970 2971 2973 2976 2977 2979 2979 2979 2979 2980 2979 2979 2977 2976 2974 2973 2973 2973 2973 2974 2975 2977 2977 2977 2977 2976
2959 2960 2961 2959 2962 2960 2957 2958 2961 2965 2965 2962 2961 2961 2960 2960 2961 2962 2963 2962 2966 2968 2969 2970 2972 2971 2971 2971 2971 2971 2971 2970 2968 2967 2966 2967 2967 2967 2967 2967 2967 2966 2966 2965